TimeCDT,TemperatureF,Dew PointF,Humidity,Sea Level PressureIn,VisibilityMPH,Wind Direction,Wind SpeedMPH,Gust SpeedMPH,PrecipitationIn,Events,Conditions,WindDirDegrees,DateUTC
12:52 AM,80.1,70.0,71,29.82,10.0,Calm,Calm,-,N/A,,Clear,0,2013-08-31 05:52:00
1:52 AM,75.9,70.0,82,29.82,10.0,SSE,4.6,-,N/A,,Clear,150,2013-08-31 06:52:00
2:52 AM,75.0,70.0,84,29.80,10.0,Calm,Calm,-,N/A,,Clear,0,2013-08-31 07:52:00
3:52 AM,75.0,70.0,84,29.79,10.0,Calm,Calm,-,N/A,,Clear,0,2013-08-31 08:52:00
4:52 AM,73.9,69.1,85,29.81,10.0,NW,5.8,-,N/A,,Clear,320,2013-08-31 09:52:00
5:52 AM,73.0,69.1,87,29.83,10.0,Calm,Calm,-,N/A,,Partly Cloudy,0,2013-08-31 10:52:00
6:52 AM,73.0,69.1,87,29.83,9.0,SSW,3.5,-,N/A,,Partly Cloudy,210,2013-08-31 11:52:00
7:52 AM,75.9,71.1,85,29.83,9.0,SSE,3.5,-,N/A,,Partly Cloudy,150,2013-08-31 12:52:00
8:52 AM,81.0,73.0,77,29.85,10.0,Calm,Calm,-,N/A,,Clear,0,2013-08-31 13:52:00
9:52 AM,84.0,72.0,67,29.86,10.0,NNW,4.6,-,N/A,,Partly Cloudy,340,2013-08-31 14:52:00
10:52 AM,86.0,75.0,70,29.83,10.0,East,6.9,-,N/A,,Clear,80,2013-08-31 15:52:00
11:52 AM,87.1,75.0,67,29.82,10.0,East,6.9,-,N/A,,Clear,100,2013-08-31 16:52:00
12:52 PM,86.0,75.9,72,29.85,10.0,WNW,9.2,-,N/A,,Mostly Cloudy,300,2013-08-31 17:52:00
1:52 PM,84.9,75.0,72,29.81,7.0,ESE,5.8,-,0.00,Rain-Thunderstorm,Light Rain,110,2013-08-31 18:52:00
2:52 PM,90.0,75.0,61,29.80,10.0,SE,13.8,-,0.00,,Scattered Clouds,140,2013-08-31 19:52:00
3:52 PM,93.0,70.0,47,29.78,10.0,SSE,5.8,-,N/A,,Clear,150,2013-08-31 20:52:00
4:52 PM,96.1,68.0,40,29.78,10.0,Calm,Calm,-,N/A,,Clear,0,2013-08-31 21:52:00
5:52 PM,93.0,66.0,41,29.78,10.0,WSW,4.6,-,N/A,,Clear,240,2013-08-31 22:52:00
6:52 PM,93.0,66.9,42,29.78,10.0,Calm,Calm,-,N/A,,Clear,0,2013-08-31 23:52:00
7:52 PM,84.0,73.0,69,29.77,10.0,Calm,Calm,-,N/A,,Clear,0,2013-09-01 00:52:00
8:52 PM,78.1,71.1,79,29.78,10.0,Calm,Calm,-,N/A,,Clear,0,2013-09-01 01:52:00
9:52 PM,75.0,70.0,84,29.78,10.0,Calm,Calm,-,N/A,,Clear,0,2013-09-01 02:52:00
10:52 PM,73.0,69.1,87,29.79,9.0,Calm,Calm,-,N/A,,Clear,0,2013-09-01 03:52:00
11:52 PM,72.0,68.0,87,29.79,10.0,Calm,Calm,-,N/A,,Clear,0,2013-09-01 04:52:00